This is the latest recevied weather packets stored in our database for station/object IZ2WMD-13. If no packets are shown the sender has not sent any weather packets the latest 10 day(s).
| Time | Temp. | Humidity | Pressure | Rain* | Wind** | Luminosity | Snow |
|---|---|---|---|---|---|---|---|
| 1777555670 | 22.22° C | 32% | 1022.2 hPa | - | - | - | - |
| 1777554465 | 22.78° C | 33% | 1022.4 hPa | - | - | - | - |
| 1777553261 | 20.56° C | 35% | 1022.8 hPa | - | - | - | - |
| 1777552056 | 20° C | 35% | 1023.1 hPa | - | - | - | - |
| 1777550852 | 20° C | 37% | 1023.2 hPa | - | - | - | - |
| 1777549647 | 18.33° C | 38% | 1023.5 hPa | - | - | - | - |
| 1777548443 | 17.78° C | 41% | 1023.8 hPa | - | - | - | - |
| 1777547238 | 16.67° C | 41% | 1024 hPa | - | - | - | - |
| 1777546034 | 16.11° C | 40% | 1024.1 hPa | - | - | - | - |
| 1777544829 | 15.56° C | 42% | 1024.3 hPa | - | - | - | - |
| 1777543625 | 14.44° C | 43% | 1024.3 hPa | - | - | - | - |
| 1777542421 | 15° C | 47% | 1024.3 hPa | - | - | - | - |
| 1777541216 | 13.89° C | 48% | 1024.4 hPa | - | - | - | - |
| 1777540011 | 13.33° C | 48% | 1024.3 hPa | - | - | - | - |
| 1777538807 | 13.89° C | 50% | 1024.2 hPa | - | - | - | - |
| 1777537602 | 14.44° C | 49% | 1023.8 hPa | - | - | - | - |
| 1777536398 | 14.44° C | 49% | 1023.7 hPa | - | - | - | - |
| 1777533989 | 13.33° C | 58% | 1023.5 hPa | - | - | - | - |
| 1777532785 | 13.33° C | 65% | 1023.4 hPa | - | - | - | - |
| 1777531580 | 12.22° C | 67% | 1023.1 hPa | - | - | - | - |
| 1777530375 | 12.22° C | 67% | 1023.1 hPa | - | - | - | - |
| 1777527966 | 11.67° C | 75% | 1022.8 hPa | - | - | - | - |
| 1777526762 | 11.67° C | 76% | 1022.4 hPa | - | - | - | - |
| 1777525557 | 11.67° C | 78% | 1022.2 hPa | - | - | - | - |
| 1777524352 | 11.67° C | 79% | 1021.8 hPa | - | - | - | - |
* Rain since midnight (hover to see other rain measurements)
** Current wind speed in m/s (hover to see current wind gust speed)